Location: ???? ?????????
(31.1304°N, 31.7111°E)
Time: 12:15:57
(UTC+00:00)

Vanguard 3 - All Passes

Search period start: 07 March 2021 00:00
Search period end: 17 March 2021 00:00
Orbit: 508 x 3262 km, 33.4° (Epoch: 06 March)

Date Brightness Start Highest point End Pass type
(mag) Time Alt. Az. Time Alt. Az. Time Alt. Az.
07 Mar - 07:49:24 10° S 08:00:20 21° SE 08:12:43 10° E daylight
07 Mar - 09:57:23 10° SW 10:14:56 54° SE 10:33:00 10° ENE daylight
07 Mar - 12:11:35 10° WSW 12:31:51 86° SSE 12:48:03 10° ENE daylight
07 Mar - 14:29:39 10° W 14:49:10 82° N 15:01:25 10° E daylight
07 Mar - 16:48:38 10° WNW 17:04:25 74° SSW 17:13:10 10° ESE visible
07 Mar - 19:07:46 10° W 19:16:08 25° SW 19:21:44 10° S visible
08 Mar - 08:43:31 10° SSW 08:58:25 38° SE 09:15:33 10° E daylight
08 Mar - 10:55:12 10° SW 11:14:18 74° SSE 11:32:23 10° ENE daylight
08 Mar - 13:11:32 10° W 13:31:56 84° N 13:46:40 10° E daylight
08 Mar - 15:30:19 10° WNW 15:48:41 90° SSW 15:59:28 10° ESE daylight
08 Mar - 17:49:09 10° WNW 18:02:18 46° SW 18:09:55 10° SSE visible
09 Mar - 07:31:26 10° S 07:42:40 23° SE 07:56:05 10° E daylight
09 Mar - 09:40:01 10° SW 09:57:05 59° SSE 10:15:55 10° ENE daylight
09 Mar - 11:54:12 10° WSW 12:14:15 89° SSE 12:31:21 10° ENE daylight
09 Mar - 14:12:00 10° W 14:31:59 84° N 14:45:08 10° E daylight
09 Mar - 16:30:50 10° WNW 16:47:29 69° SSW 16:56:58 10° SE visible
09 Mar - 18:50:37 10° W 18:59:14 23° SW 19:05:08 10° S visible
10 Mar - 06:25:21 10° SE 06:27:36 10° SE 06:29:56 10° ESE daylight
10 Mar - 08:26:07 10° SSW 08:40:35 42° SE 08:58:22 10° ENE daylight
10 Mar - 10:37:56 10° WSW 10:56:32 78° SSE 11:15:23 10° ENE daylight
10 Mar - 12:54:06 10° W 13:14:31 83° N 13:30:09 10° E daylight
10 Mar - 15:12:33 10° WNW 15:31:36 86° SSW 15:43:13 10° ESE daylight
10 Mar - 17:31:31 10° WNW 17:45:18 43° SW 17:53:32 10° SSE visible
11 Mar - 07:13:49 10° S 07:24:59 26° SE 07:39:08 10° E daylight
11 Mar - 09:22:50 10° SW 09:39:15 63° SSE 09:58:40 10° ENE daylight
11 Mar - 11:36:58 10° WSW 11:56:37 88° NNW 12:14:33 10° E daylight
11 Mar - 13:54:25 10° W 14:14:42 85° N 14:28:44 10° E daylight
11 Mar - 16:13:02 10° WNW 16:30:23 64° SSW 16:40:39 10° SE visible
11 Mar - 18:33:29 10° W 18:42:11 21° SW 18:48:23 10° S visible
12 Mar - 06:05:12 10° SSE 06:10:09 12° SE 06:15:44 10° ESE daylight
12 Mar - 08:08:57 10° SSW 08:22:49 46° SE 08:41:00 10° ENE daylight
12 Mar - 10:20:52 10° WSW 10:38:47 82° SSE 10:58:17 10° ENE daylight
12 Mar - 12:36:45 10° W 12:57:02 83° N 13:13:33 10° E daylight
12 Mar - 14:54:48 10° WNW 15:14:22 82° SSW 15:26:53 10° ESE daylight
12 Mar - 17:13:53 10° WNW 17:28:09 39° SW 17:37:03 10° SSE visible
13 Mar - 06:56:28 10° S 07:07:21 29° SE 07:21:56 10° E daylight
13 Mar - 09:05:51 10° SW 09:21:29 68° SSE 09:41:18 10° ENE daylight
13 Mar - 11:19:52 10° W 11:39:00 86° N 11:57:39 10° E daylight
13 Mar - 13:36:53 10° W 13:57:19 87° NNE 14:12:16 10° ESE daylight
13 Mar - 15:55:14 10° WNW 16:13:09 60° SSW 16:24:14 10° SE visible
13 Mar - 18:16:26 10° W 18:25:02 19° SW 18:31:26 10° SSW visible
14 Mar - 05:46:47 10° SSE 05:52:44 14° SE 05:59:51 10° E daylight
14 Mar - 07:51:58 10° SSW 08:05:07 50° SE 08:23:30 10° ENE daylight
14 Mar - 10:03:56 10° WSW 10:21:05 85° SSE 10:41:04 10° ENE daylight
14 Mar - 12:19:31 10° W 12:39:31 83° N 12:56:52 10° E daylight
14 Mar - 14:37:06 10° WNW 14:57:00 78° SSW 15:10:25 10° ESE daylight
14 Mar - 16:56:15 10° WNW 17:10:53 36° SW 17:20:25 10° SSE visible
15 Mar - 06:39:22 10° SSW 06:49:48 32° SE 07:04:34 10° E daylight
15 Mar - 08:49:02 10° SW 09:03:48 72° SSE 09:23:49 10° ENE daylight
15 Mar - 11:02:53 10° W 11:21:23 85° N 11:40:40 10° E daylight
15 Mar - 13:19:27 10° WNW 13:39:50 90° NNW 13:55:42 10° ESE daylight
15 Mar - 15:37:30 10° WNW 15:55:45 56° SW 16:07:40 10° SE daylight
15 Mar - 17:59:31 10° W 18:07:48 17° SW 18:14:13 10° SSW visible
16 Mar - 05:29:01 10° SSE 05:35:22 16° SE 05:43:22 10° E daylight
16 Mar - 07:35:10 10° SW 07:47:31 54° SE 08:05:52 10° ENE daylight
16 Mar - 09:47:10 10° WSW 10:03:27 89° SSE 10:23:46 10° ENE daylight
16 Mar - 12:02:23 10° W 12:21:56 84° N 12:40:03 10° E daylight
16 Mar - 14:19:29 10° WNW 14:39:30 74° SSW 14:53:49 10° SE daylight
16 Mar - 16:38:42 10° W 16:53:28 33° SW 17:03:36 10° SSE visible
